| time (UTC) | temp F | wind direction | speed knots | gust knots | rain 1hr in | rain 24hr in | rain mn in | humidity % | barometer mb |
| 20260902223102 | 69 | 0 | 0.0 | 6.1 | 0.00 | 0.00 | 0.00 | 67 | 1017.7 |
| 20260902222545 | 69 | 217 | 0.9 | 6.1 | 0.00 | 0.00 | 0.00 | 65 | 1017.8 |
| 20260902222045 | 69 | 211 | 0.0 | 4.3 | 0.00 | 0.00 | 0.00 | 67 | 1017.8 |
| 20260902221607 | 69 | 209 | 0.9 | 6.1 | 0.00 | 0.00 | 0.00 | 65 | 1017.9 |
| 20260902221046 | 69 | 0 | 0.9 | 6.1 | 0.00 | 0.00 | 0.00 | 66 | 1018.0 |
| 20260902220543 | 68 | 269 | 1.7 | 6.1 | 0.00 | 0.00 | 0.00 | 64 | 1018.1 |
| 20260902220100 | 68 | 154 | 0.0 | 5.2 | 0.00 | 0.00 | 0.00 | 68 | 1018.1 |
| 20260902215543 | 68 | 0 | 0.0 | 5.2 | 0.00 | 0.00 | 0.00 | 68 | 1018.2 |
| 20260902215043 | 67 | 144 | 0.9 | 5.2 | 0.00 | 0.00 | 0.00 | 70 | 1018.2 |
| 20260902214604 | 66 | 0 | 0.9 | 6.1 | 0.00 | 0.00 | 0.00 | 73 | 1018.3 |
| 20260902214044 | 66 | 117 | 1.7 | 6.1 | 0.00 | 0.00 | 0.00 | 75 | 1018.4 |
| 20260902213544 | 66 | 235 | 0.0 | 6.1 | 0.00 | 0.00 | 0.00 | 74 | 1018.5 |
| 20260902213059 | 65 | 100 | 1.7 | 6.1 | 0.00 | 0.00 | 0.00 | 75 | 1018.5 |
| 20260902212544 | 66 | 117 | 0.9 | 5.2 | 0.00 | 0.00 | 0.00 | 75 | 1018.5 |
| 20260902212044 | 66 | 101 | 0.9 | 4.3 | 0.00 | 0.00 | 0.00 | 76 | 1018.6 |
| 20260902211614 | 65 | 0 | 0.0 | 2.6 | 0.00 | 0.00 | 0.00 | 78 | 1018.6 |
| 20260902211043 | 64 | 0 | 0.0 | 6.1 | 0.00 | 0.00 | 0.00 | 78 | 1018.6 |
| 20260902210543 | 63 | 0 | 0.9 | 6.1 | 0.00 | 0.00 | 0.00 | 82 | 1018.6 |
| 20260902210114 | 63 | 146 | 1.7 | 4.3 | 0.00 | 0.00 | 0.00 | 83 | 1018.7 |
| 20260902205547 | 62 | 181 | 0.9 | 3.5 | 0.00 | 0.00 | 0.00 | 85 | 1018.7 |
| 20260902205043 | 61 | 140 | 0.9 | 3.5 | 0.00 | 0.00 | 0.00 | 88 | 1018.7 |
| 20260902204557 | 61 | 135 | 0.0 | 4.3 | 0.00 | 0.00 | 0.00 | 88 | 1018.7 |
| 20260902204043 | 60 | 136 | 1.7 | 4.3 | 0.00 | 0.00 | 0.00 | 86 | 1018.8 |
| 20260902203542 | 61 | 150 | 0.9 | 5.2 | 0.00 | 0.00 | 0.00 | 86 | 1018.7 |
| 20260902203059 | 61 | 0 | 0.9 | 5.2 | 0.00 | 0.00 | 0.00 | 87 | 1018.7 |
| 20260902202544 | 61 | 0 | 0.0 | 2.6 | 0.00 | 0.00 | 0.00 | 88 | 1018.7 |
| 20260902202044 | 60 | 0 | 0.9 | 2.6 | 0.00 | 0.00 | 0.00 | 88 | 1018.8 |
| 20260902201611 | 60 | 0 | 0.9 | 2.6 | 0.00 | 0.00 | 0.00 | 87 | 1018.9 |
| 20260902201045 | 60 | 0 | 0.9 | 2.6 | 0.00 | 0.00 | 0.00 | 87 | 1019.0 |
| 20260902200546 | 60 | 0 | 0.0 | 2.6 | 0.00 | 0.00 | 0.00 | 86 | 1019.0 |
| 20260902200053 | 60 | 0 | 0.9 | 2.6 | 0.00 | 0.00 | 0.00 | 86 | 1019.0 |
| 20260902195544 | 60 | 0 | 0.0 | 2.6 | 0.00 | 0.00 | 0.00 | 85 | 1019.0 |
| 20260902195043 | 60 | 0 | 0.9 | 4.3 | 0.00 | 0.00 | 0.00 | 85 | 1018.9 |
| 20260902194554 | 60 | 143 | 0.9 | 5.2 | 0.00 | 0.00 | 0.00 | 84 | 1018.9 |
| 20260902194048 | 60 | 144 | 1.7 | 5.2 | 0.00 | 0.00 | 0.00 | 83 | 1018.9 |
| 20260902193544 | 60 | 161 | 1.7 | 5.2 | 0.00 | 0.00 | 0.00 | 84 | 1018.8 |
| 20260902193051 | 60 | 154 | 2.6 | 5.2 | 0.00 | 0.00 | 0.00 | 83 | 1018.8 |
| 20260902192546 | 60 | 123 | 0.0 | 6.1 | 0.00 | 0.00 | 0.00 | 84 | 1018.9 |
| 20260902192044 | 60 | 128 | 2.6 | 6.1 | 0.00 | 0.00 | 0.00 | 83 | 1018.9 |
| 20260902191602 | 60 | 177 | 0.0 | 1.7 | 0.00 | 0.00 | 0.00 | 83 | 1018.9 |
| 20260902191043 | 60 | 180 | 0.0 | 5.2 | 0.00 | 0.00 | 0.00 | 83 | 1019.0 |
| 20260902190543 | 59 | 186 | 1.7 | 5.2 | 0.00 | 0.00 | 0.00 | 84 | 1018.9 |
| 20260902190054 | 59 | 141 | 1.7 | 6.1 | 0.00 | 0.00 | 0.00 | 84 | 1018.9 |
| 20260902185543 | 59 | 146 | 2.6 | 6.1 | 0.00 | 0.00 | 0.00 | 85 | 1018.9 |
| 20260902185045 | 59 | 113 | 2.6 | 5.2 | 0.00 | 0.00 | 0.00 | 86 | 1019.1 |
| 20260902184557 | 59 | 142 | 1.7 | 6.1 | 0.00 | 0.00 | 0.00 | 86 | 1019.1 |
| 20260902184047 | 59 | 145 | 2.6 | 6.1 | 0.00 | 0.00 | 0.00 | 86 | 1019.0 |
| 20260902183548 | 59 | 140 | 1.7 | 4.3 | 0.00 | 0.00 | 0.00 | 86 | 1018.9 |
| 20260902183051 | 58 | 0 | 0.9 | 4.3 | 0.00 | 0.00 | 0.00 | 86 | 1018.9 |
| 20260902182544 | 58 | 137 | 1.7 | 4.3 | 0.00 | 0.00 | 0.00 | 86 | 1018.9 |
| 20260902182043 | 58 | 151 | 1.7 | 6.1 | 0.00 | 0.00 | 0.00 | 86 | 1018.8 |
| 20260902181559 | 58 | 146 | 2.6 | 6.1 | 0.00 | 0.00 | 0.00 | 87 | 1018.7 |
| 20260902181043 | 58 | 135 | 2.6 | 7.0 | 0.00 | 0.00 | 0.00 | 87 | 1018.8 |
| 20260902180543 | 58 | 150 | 2.6 | 7.0 | 0.00 | 0.00 | 0.00 | 87 | 1018.8 |
| 20260902180116 | 57 | 138 | 2.6 | 6.1 | 0.00 | 0.00 | 0.00 | 88 | 1018.8 |
| 20260902175543 | 57 | 144 | 3.5 | 6.1 | 0.00 | 0.00 | 0.00 | 88 | 1018.7 |
| 20260902175043 | 57 | 132 | 1.7 | 7.0 | 0.00 | 0.00 | 0.00 | 88 | 1018.7 |
| 20260902174559 | 57 | 134 | 3.5 | 7.0 | 0.00 | 0.00 | 0.00 | 87 | 1018.7 |
| 20260902174045 | 57 | 149 | 3.5 | 6.1 | 0.00 | 0.00 | 0.00 | 86 | 1018.7 |
| 20260902173544 | 57 | 134 | 1.7 | 7.0 | 0.00 | 0.00 | 0.00 | 87 | 1018.6 |
| 20260902173101 | 57 | 162 | 2.6 | 7.0 | 0.00 | 0.00 | 0.00 | 87 | 1018.7 |
| 20260902172543 | 57 | 142 | 2.6 | 6.1 | 0.00 | 0.00 | 0.00 | 87 | 1018.6 |
| 20260902172043 | 57 | 163 | 1.7 | 6.1 | 0.00 | 0.00 | 0.00 | 86 | 1018.6 |
| 20260902171600 | 57 | 152 | 1.7 | 4.3 | 0.00 | 0.00 | 0.00 | 86 | 1018.7 |
| 20260902171047 | 57 | 152 | 0.9 | 5.2 | 0.00 | 0.00 | 0.00 | 86 | 1018.5 |
| 20260902170545 | 57 | 144 | 1.7 | 5.2 | 0.00 | 0.00 | 0.00 | 86 | 1018.4 |
| 20260902170111 | 57 | 132 | 1.7 | 4.3 | 0.00 | 0.00 | 0.00 | 87 | 1018.5 |
| 20260902165544 | 57 | 128 | 1.7 | 3.5 | 0.00 | 0.00 | 0.00 | 87 | 1018.4 |
| 20260902165044 | 57 | 150 | 0.9 | 3.5 | 0.00 | 0.00 | 0.00 | 87 | 1018.5 |
| 20260902164601 | 57 | 134 | 0.9 | 4.3 | 0.00 | 0.00 | 0.00 | 87 | 1018.4 |
| 20260902164043 | 57 | 134 | 1.7 | 4.3 | 0.00 | 0.00 | 0.00 | 87 | 1018.4 |
| 20260902163544 | 56 | 156 | 1.7 | 6.1 | 0.00 | 0.00 | 0.00 | 87 | 1018.5 |
| 20260902163057 | 56 | 125 | 1.7 | 7.0 | 0.00 | 0.00 | 0.00 | 87 | 1018.4 |
| 20260902162545 | 56 | 162 | 3.5 | 7.0 | 0.00 | 0.00 | 0.00 | 86 | 1018.4 |
| 20260902162044 | 56 | 140 | 3.5 | 7.0 | 0.00 | 0.00 | 0.00 | 86 | 1018.4 |
| 20260902161604 | 56 | 142 | 3.5 | 7.0 | 0.00 | 0.00 | 0.00 | 87 | 1018.5 |
| 20260902161044 | 56 | 145 | 2.6 | 6.1 | 0.00 | 0.00 | 0.00 | 87 | 1018.5 |
| 20260902160544 | 56 | 140 | 1.7 | 5.2 | 0.00 | 0.00 | 0.00 | 87 | 1018.5 |
| 20260902160059 | 56 | 145 | 1.7 | 3.5 | 0.00 | 0.00 | 0.00 | 87 | 1018.5 |
| 20260902155544 | 56 | 135 | 2.6 | 4.3 | 0.00 | 0.00 | 0.00 | 87 | 1018.6 |
| 20260902155047 | 56 | 146 | 2.6 | 4.3 | 0.00 | 0.00 | 0.00 | 86 | 1018.5 |
| 20260902154557 | 55 | 156 | 1.7 | 4.3 | 0.00 | 0.00 | 0.00 | 86 | 1018.5 |
| 20260902154043 | 55 | 149 | 1.7 | 7.0 | 0.00 | 0.00 | 0.00 | 86 | 1018.4 |
| 20260902153543 | 55 | 148 | 3.5 | 7.0 | 0.00 | 0.00 | 0.00 | 87 | 1018.3 |
| 20260902153054 | 55 | 152 | 3.5 | 7.0 | 0.00 | 0.00 | 0.00 | 87 | 1018.3 |
| 20260902152544 | 55 | 134 | 2.6 | 7.0 | 0.00 | 0.00 | 0.00 | 87 | 1018.1 |
| 20260902152042 | 55 | 138 | 4.3 | 6.1 | 0.00 | 0.00 | 0.00 | 87 | 1018.0 |
| 20260902151603 | 55 | 140 | 3.5 | 7.0 | 0.00 | 0.00 | 0.00 | 87 | 1018.0 |
| 20260902151043 | 55 | 131 | 3.5 | 7.0 | 0.00 | 0.00 | 0.00 | 87 | 1017.8 |
| 20260902150543 | 55 | 140 | 3.5 | 7.0 | 0.00 | 0.00 | 0.00 | 87 | 1017.9 |
| 20260902145544 | 55 | 152 | 0.9 | 3.5 | 0.00 | 0.00 | 0.00 | 86 | 1017.7 |
| 20260902145040 | 55 | 140 | 1.7 | 4.3 | 0.00 | 0.00 | 0.00 | 86 | 1017.7 |
| 20260902144607 | 55 | 141 | 1.7 | 4.3 | 0.00 | 0.00 | 0.00 | 86 | 1017.8 |
| 20260902144045 | 55 | 141 | 1.7 | 3.5 | 0.00 | 0.00 | 0.00 | 85 | 1017.9 |
| 20260902143541 | 55 | 0 | 0.9 | 3.5 | 0.00 | 0.00 | 0.00 | 85 | 1017.9 |
| 20260902143057 | 55 | 139 | 0.0 | 2.6 | 0.00 | 0.00 | 0.00 | 85 | 1017.7 |
| 20260902142544 | 55 | 139 | 0.0 | 2.6 | 0.00 | 0.00 | 0.00 | 84 | 1017.8 |
| 20260902142044 | 55 | 139 | 0.9 | 2.6 | 0.00 | 0.00 | 0.00 | 84 | 1017.8 |
| 20260902141550 | 55 | 121 | 0.0 | 2.6 | 0.00 | 0.00 | 0.00 | 84 | 1017.7 |
| 20260902141044 | 55 | 0 | 0.0 | 2.6 | 0.00 | 0.00 | 0.00 | 83 | 1017.7 |
| 20260902140544 | 55 | 137 | 0.9 | 2.6 | 0.00 | 0.00 | 0.00 | 84 | 1017.5 |
| 20260902140059 | 55 | 137 | 0.0 | 1.7 | 0.00 | 0.00 | 0.00 | 84 | 1017.5 |
| 20260902135544 | 55 | 0 | 0.0 | 1.7 | 0.00 | 0.00 | 0.00 | 84 | 1017.5 |
| 20260902135041 | 55 | 0 | 0.0 | 1.7 | 0.00 | 0.00 | 0.00 | 84 | 1017.4 |
| 20260902134557 | 55 | 0 | 0.0 | 1.7 | 0.00 | 0.00 | 0.00 | 84 | 1017.3 |
| 20260902134043 | 55 | 0 | 0.0 | 2.6 | 0.00 | 0.00 | 0.00 | 83 | 1017.2 |
| 20260902133543 | 55 | 137 | 0.9 | 2.6 | 0.00 | 0.00 | 0.00 | 83 | 1017.2 |
| 20260902133054 | 55 | 137 | 0.9 | 3.5 | 0.00 | 0.00 | 0.00 | 83 | 1017.3 |
| 20260902132545 | 55 | 0 | 1.7 | 3.5 | 0.00 | 0.00 | 0.00 | 83 | 1017.2 |
| 20260902132044 | 55 | 136 | 0.0 | 2.6 | 0.00 | 0.00 | 0.00 | 83 | 1017.3 |
| 20260902131554 | 55 | 136 | 1.7 | 2.6 | 0.00 | 0.00 | 0.00 | 83 | 1017.4 |
| 20260902131044 | 55 | 137 | 0.0 | 1.7 | 0.00 | 0.00 | 0.00 | 83 | 1017.4 |
| 20260902130543 | 55 | 0 | 0.0 | 2.6 | 0.00 | 0.00 | 0.00 | 83 | 1017.3 |
| 20260902130104 | 55 | 137 | 0.9 | 2.6 | 0.00 | 0.00 | 0.00 | 82 | 1017.3 |
| 20260902125543 | 55 | 136 | 0.9 | 2.6 | 0.00 | 0.00 | 0.00 | 82 | 1017.4 |
| 20260902125044 | 56 | 137 | 0.9 | 2.6 | 0.00 | 0.00 | 0.00 | 82 | 1017.3 |
| 20260902124557 | 55 | 137 | 0.9 | 2.6 | 0.00 | 0.00 | 0.00 | 82 | 1017.2 |
| 20260902124043 | 56 | 137 | 0.0 | 4.3 | 0.00 | 0.00 | 0.00 | 82 | 1017.2 |
| 20260902123546 | 55 | 138 | 0.9 | 5.2 | 0.00 | 0.00 | 0.00 | 82 | 1017.2 |
| 20260902123054 | 55 | 111 | 2.6 | 5.2 | 0.00 | 0.00 | 0.00 | 82 | 1017.4 |
| 20260902122544 | 55 | 0 | 0.0 | 3.5 | 0.00 | 0.00 | 0.00 | 82 | 1017.3 |
| 20260902122040 | 55 | 131 | 0.0 | 5.2 | 0.00 | 0.00 | 0.00 | 82 | 1017.2 |
| 20260902121550 | 55 | 131 | 2.6 | 5.2 | 0.00 | 0.00 | 0.00 | 82 | 1017.1 |
| 20260902121044 | 54 | 171 | 0.9 | 3.5 | 0.00 | 0.00 | 0.00 | 84 | 1017.1 |
| 20260902120544 | 54 | 0 | 0.0 | 3.5 | 0.00 | 0.00 | 0.00 | 85 | 1017.1 |
| 20260902115543 | 54 | 163 | 0.9 | 4.3 | 0.00 | 0.00 | 0.00 | 87 | 1017.0 |
| 20260902115043 | 54 | 136 | 1.7 | 4.3 | 0.00 | 0.00 | 0.00 | 88 | 1017.1 |
| 20260902114554 | 54 | 145 | 0.0 | 2.6 | 0.00 | 0.00 | 0.00 | 89 | 1017.2 |
| 20260902114044 | 54 | 0 | 0.0 | 0.0 | 0.00 | 0.00 | 0.00 | 89 | 1017.2 |
| 20260902113543 | 54 | 0 | 0.0 | 0.0 | 0.00 | 0.00 | 0.00 | 89 | 1017.1 |
| 20260902113055 | 54 | 0 | 0.0 | 0.0 | 0.00 | 0.00 | 0.00 | 89 | 1017.3 |
| 20260902112545 | 54 | 0 | 0.0 | 0.0 | 0.00 | 0.00 | 0.00 | 89 | 1017.4 |
| 20260902112044 | 54 | 0 | 0.0 | 0.0 | 0.00 | 0.00 | 0.00 | 89 | 1017.4 |
| 20260902111550 | 54 | 0 | 0.0 | 0.9 | 0.00 | 0.00 | 0.00 | 89 | 1017.4 |
| 20260902111044 | 54 | 0 | 0.0 | 2.6 | 0.00 | 0.00 | 0.00 | 90 | 1017.4 |
| 20260902110545 | 54 | 0 | 0.0 | 2.6 | 0.00 | 0.00 | 0.00 | 90 | 1017.3 |
| 20260902105546 | 54 | 134 | 0.9 | 3.5 | 0.00 | 0.00 | 0.00 | 90 | 1017.4 |
| 20260902105044 | 54 | 134 | 0.9 | 3.5 | 0.00 | 0.00 | 0.00 | 89 | 1017.3 |
| 20260902104554 | 54 | 0 | 0.0 | 0.0 | 0.00 | 0.00 | 0.00 | 90 | 1017.3 |
| 20260902104044 | 54 | 0 | 0.0 | 1.7 | 0.00 | 0.00 | 0.00 | 89 | 1017.3 |
| 20260902103543 | 54 | 0 | 0.0 | 1.7 | 0.00 | 0.00 | 0.00 | 89 | 1017.4 |
| 20260902103053 | 54 | 135 | 0.0 | 0.9 | 0.00 | 0.00 | 0.00 | 89 | 1017.3 |
| 20260902102543 | 54 | 323 | 0.0 | 1.7 | 0.00 | 0.00 | 0.00 | 90 | 1017.2 |
| 20260902102044 | 54 | 0 | 0.0 | 1.7 | 0.00 | 0.00 | 0.00 | 90 | 1017.2 |
| 20260902101550 | 54 | 0 | 0.0 | 1.7 | 0.00 | 0.00 | 0.00 | 90 | 1017.3 |
| 20260902101044 | 54 | 323 | 0.0 | 0.9 | 0.00 | 0.00 | 0.00 | 90 | 1017.3 |
| 20260902100544 | 54 | 0 | 0.0 | 0.9 | 0.00 | 0.00 | 0.00 | 90 | 1017.2 |
| 20260902100229 | 54 | 0 | 0.0 | 0.9 | 0.00 | 0.00 | 0.00 | 89 | 1017.2 |
| 20260902095543 | 54 | 0 | 0.0 | 0.9 | 0.00 | 0.00 | 0.00 | 89 | 1017.2 |
| 20260902095043 | 54 | 0 | 0.0 | 1.7 | 0.00 | 0.00 | 0.00 | 89 | 1017.3 |
| 20260902094615 | 54 | 0 | 0.0 | 1.7 | 0.00 | 0.00 | 0.00 | 89 | 1017.3 |
| 20260902094044 | 54 | 0 | 0.9 | 1.7 | 0.00 | 0.00 | 0.00 | 89 | 1017.4 |
| 20260902093544 | 54 | 0 | 0.0 | 1.7 | 0.00 | 0.00 | 0.00 | 88 | 1017.5 |
| 20260902093053 | 54 | 0 | 0.0 | 0.9 | 0.00 | 0.00 | 0.00 | 88 | 1017.4 |
| 20260902092543 | 54 | 0 | 0.0 | 2.6 | 0.00 | 0.00 | 0.00 | 88 | 1017.3 |
| 20260902092047 | 54 | 0 | 0.0 | 2.6 | 0.00 | 0.00 | 0.00 | 88 | 1017.4 |
| 20260902091603 | 54 | 323 | 0.0 | 3.5 | 0.00 | 0.00 | 0.00 | 88 | 1017.3 |
| 20260902091044 | 54 | 323 | 0.9 | 3.5 | 0.00 | 0.00 | 0.00 | 88 | 1017.4 |
| 20260902090544 | 54 | 323 | 0.9 | 2.6 | 0.00 | 0.00 | 0.00 | 88 | 1017.5 |
| 20260902090058 | 54 | 323 | 0.9 | 2.6 | 0.00 | 0.00 | 0.00 | 88 | 1017.4 |
| 20260902085545 | 54 | 323 | 0.9 | 2.6 | 0.00 | 0.00 | 0.00 | 88 | 1017.5 |
| 20260902085043 | 54 | 323 | 0.9 | 2.6 | 0.00 | 0.00 | 0.00 | 88 | 1017.5 |
| 20260902084556 | 54 | 321 | 0.9 | 3.5 | 0.00 | 0.00 | 0.00 | 88 | 1017.5 |
| 20260902084045 | 54 | 321 | 0.9 | 4.3 | 0.00 | 0.00 | 0.00 | 88 | 1017.6 |
| 20260902083544 | 54 | 0 | 1.7 | 4.3 | 0.00 | 0.00 | 0.00 | 87 | 1017.6 |
| 20260902083056 | 55 | 314 | 1.7 | 3.5 | 0.00 | 0.00 | 0.00 | 87 | 1017.5 |
| 20260902082546 | 55 | 314 | 1.7 | 3.5 | 0.00 | 0.00 | 0.00 | 87 | 1017.5 |
| 20260902082044 | 55 | 325 | 0.9 | 3.5 | 0.00 | 0.00 | 0.00 | 87 | 1017.5 |
| 20260902081601 | 55 | 325 | 0.9 | 4.3 | 0.00 | 0.00 | 0.00 | 86 | 1017.5 |
| 20260902081044 | 55 | 317 | 0.9 | 4.3 | 0.00 | 0.00 | 0.00 | 86 | 1017.6 |
| 20260902080544 | 55 | 317 | 1.7 | 4.3 | 0.00 | 0.00 | 0.00 | 85 | 1017.6 |
| 20260902080113 | 55 | 313 | 1.7 | 4.3 | 0.00 | 0.00 | 0.00 | 85 | 1017.6 |
| 20260902075547 | 55 | 310 | 1.7 | 3.5 | 0.00 | 0.00 | 0.00 | 85 | 1017.6 |
| 20260902075043 | 55 | 310 | 1.7 | 3.5 | 0.00 | 0.00 | 0.00 | 84 | 1017.6 |
| 20260902074557 | 55 | 0 | 0.9 | 3.5 | 0.00 | 0.00 | 0.00 | 84 | 1017.6 |
| 20260902074045 | 55 | 310 | 2.6 | 3.5 | 0.00 | 0.00 | 0.00 | 83 | 1017.6 |
| 20260902073544 | 55 | 310 | 1.7 | 3.5 | 0.00 | 0.00 | 0.00 | 83 | 1017.7 |
| 20260902073104 | 55 | 309 | 1.7 | 4.3 | 0.00 | 0.00 | 0.00 | 83 | 1017.7 |
| 20260902072545 | 55 | 309 | 1.7 | 4.3 | 0.00 | 0.00 | 0.00 | 82 | 1017.6 |
| 20260902072047 | 55 | 309 | 1.7 | 4.3 | 0.00 | 0.00 | 0.00 | 82 | 1017.6 |
| 20260902071603 | 55 | 0 | 0.9 | 2.6 | 0.00 | 0.00 | 0.00 | 82 | 1017.7 |
| 20260902071044 | 55 | 309 | 0.9 | 2.6 | 0.00 | 0.00 | 0.00 | 82 | 1017.6 |
| 20260902070543 | 55 | 0 | 0.9 | 2.6 | 0.00 | 0.00 | 0.00 | 82 | 1017.6 |
| 20260902070106 | 55 | 309 | 0.9 | 2.6 | 0.00 | 0.00 | 0.00 | 82 | 1017.7 |
| 20260902065544 | 55 | 309 | 0.0 | 1.7 | 0.00 | 0.00 | 0.00 | 81 | 1017.6 |
| 20260902065044 | 55 | 0 | 0.0 | 1.7 | 0.00 | 0.00 | 0.00 | 81 | 1017.5 |
| 20260902064610 | 55 | 0 | 0.0 | 1.7 | 0.00 | 0.00 | 0.00 | 80 | 1017.5 |
| 20260902064045 | 55 | 0 | 0.0 | 0.0 | 0.00 | 0.00 | 0.00 | 80 | 1017.5 |
| 20260902063543 | 55 | 0 | 0.0 | 0.0 | 0.00 | 0.00 | 0.00 | 80 | 1017.5 |
| 20260902063106 | 55 | 0 | 0.0 | 0.9 | 0.00 | 0.00 | 0.00 | 79 | 1017.4 |
| 20260902062544 | 56 | 0 | 0.0 | 0.9 | 0.00 | 0.00 | 0.00 | 79 | 1017.4 |
| 20260902062044 | 55 | 0 | 0.0 | 0.9 | 0.00 | 0.00 | 0.00 | 79 | 1017.4 |
| 20260902061559 | 56 | 0 | 0.0 | 0.0 | 0.00 | 0.00 | 0.00 | 80 | 1017.3 |
| 20260902061045 | 56 | 0 | 0.0 | 0.0 | 0.00 | 0.00 | 0.00 | 80 | 1017.3 |
| 20260902060544 | 56 | 0 | 0.0 | 1.7 | 0.00 | 0.00 | 0.00 | 80 | 1017.3 |
| 20260902060115 | 56 | 0 | 0.0 | 1.7 | 0.00 | 0.00 | 0.00 | 80 | 1017.3 |
| 20260902055544 | 55 | 309 | 0.9 | 2.6 | 0.00 | 0.00 | 0.00 | 80 | 1017.3 |
| 20260902055044 | 55 | 309 | 0.9 | 2.6 | 0.00 | 0.00 | 0.00 | 80 | 1017.3 |
| 20260902054557 | 55 | 309 | 0.9 | 1.7 | 0.00 | 0.00 | 0.00 | 80 | 1017.5 |
| 20260902054044 | 55 | 309 | 0.9 | 1.7 | 0.00 | 0.00 | 0.00 | 80 | 1017.6 |
| 20260902053543 | 55 | 309 | 0.9 | 1.7 | 0.00 | 0.00 | 0.00 | 81 | 1017.6 |
| 20260902053059 | 55 | 309 | 0.9 | 1.7 | 0.00 | 0.00 | 0.00 | 81 | 1017.7 |
| 20260902052546 | 55 | 0 | 0.0 | 0.0 | 0.00 | 0.00 | 0.00 | 82 | 1017.7 |
| 20260902052044 | 55 | 0 | 0.0 | 0.0 | 0.00 | 0.00 | 0.00 | 82 | 1017.9 |
| 20260902051606 | 55 | 0 | 0.0 | 0.0 | 0.00 | 0.00 | 0.00 | 82 | 1017.8 |
| 20260902051043 | 55 | 0 | 0.0 | 0.0 | 0.00 | 0.00 | 0.00 | 82 | 1017.9 |
| 20260902050545 | 55 | 0 | 0.0 | 0.9 | 0.00 | 0.00 | 0.00 | 82 | 1017.9 |
| 20260902050104 | 54 | 0 | 0.0 | 1.7 | 0.00 | 0.00 | 0.00 | 82 | 1017.8 |
| 20260902045543 | 55 | 0 | 0.0 | 1.7 | 0.00 | 0.00 | 0.00 | 82 | 1017.9 |
| 20260902045043 | 55 | 309 | 0.0 | 2.6 | 0.00 | 0.00 | 0.00 | 83 | 1017.8 |
| 20260902044617 | 55 | 0 | 0.0 | 2.6 | 0.00 | 0.00 | 0.00 | 83 | 1017.9 |
| 20260902044044 | 55 | 309 | 1.7 | 2.6 | 0.00 | 0.00 | 0.00 | 83 | 1017.8 |
| 20260902043544 | 55 | 309 | 1.7 | 2.6 | 0.00 | 0.00 | 0.00 | 83 | 1017.8 |
| 20260902043104 | 55 | 309 | 0.9 | 3.5 | 0.00 | 0.00 | 0.00 | 83 | 1017.8 |
| 20260902042546 | 55 | 309 | 0.0 | 3.5 | 0.00 | 0.00 | 0.00 | 83 | 1017.8 |
| 20260902042044 | 55 | 308 | 1.7 | 2.6 | 0.00 | 0.00 | 0.00 | 83 | 1017.9 |
| 20260902041602 | 55 | 0 | 0.0 | 2.6 | 0.00 | 0.00 | 0.00 | 83 | 1017.8 |
| 20260902041045 | 55 | 308 | 0.0 | 2.6 | 0.00 | 0.00 | 0.00 | 83 | 1017.7 |
| 20260902040545 | 54 | 0 | 0.9 | 4.3 | 0.00 | 0.00 | 0.00 | 83 | 1017.7 |
| 20260902035544 | 54 | 308 | 2.6 | 4.3 | 0.00 | 0.00 | 0.00 | 84 | 1017.6 |
| 20260902035044 | 54 | 309 | 0.9 | 3.5 | 0.00 | 0.00 | 0.00 | 84 | 1017.5 |
| 20260902034601 | 54 | 309 | 0.9 | 2.6 | 0.00 | 0.00 | 0.00 | 83 | 1017.5 |
| 20260902034044 | 54 | 309 | 0.9 | 2.6 | 0.00 | 0.00 | 0.00 | 83 | 1017.5 |
| 20260902033548 | 55 | 0 | 0.0 | 2.6 | 0.00 | 0.00 | 0.00 | 83 | 1017.5 |
| 20260902033110 | 55 | 309 | 0.9 | 2.6 | 0.00 | 0.00 | 0.00 | 82 | 1017.4 |
| 20260902032546 | 55 | 0 | 0.0 | 3.5 | 0.00 | 0.00 | 0.00 | 81 | 1017.3 |
| 20260902032045 | 55 | 0 | 0.0 | 3.5 | 0.00 | 0.00 | 0.00 | 81 | 1017.3 |
| 20260902031558 | 55 | 309 | 1.7 | 3.5 | 0.00 | 0.00 | 0.00 | 80 | 1017.4 |
| 20260902031044 | 55 | 309 | 1.7 | 3.5 | 0.00 | 0.00 | 0.00 | 79 | 1017.3 |
| 20260902030547 | 55 | 307 | 1.7 | 3.5 | 0.00 | 0.00 | 0.00 | 79 | 1017.2 |
| 20260902030058 | 55 | 307 | 1.7 | 3.5 | 0.00 | 0.00 | 0.00 | 78 | 1017.2 |
| 20260902025545 | 55 | 307 | 1.7 | 3.5 | 0.00 | 0.00 | 0.00 | 78 | 1017.2 |
| 20260902025045 | 56 | 307 | 1.7 | 3.5 | 0.00 | 0.00 | 0.00 | 78 | 1017.1 |
| 20260902024607 | 56 | 307 | 1.7 | 4.3 | 0.00 | 0.00 | 0.00 | 77 | 1017.1 |
| 20260902024045 | 56 | 307 | 1.7 | 4.3 | 0.00 | 0.00 | 0.00 | 77 | 1017.0 |
| 20260902023544 | 56 | 308 | 1.7 | 4.3 | 0.00 | 0.00 | 0.00 | 76 | 1017.1 |
| 20260902023052 | 57 | 301 | 2.6 | 4.3 | 0.00 | 0.00 | 0.00 | 75 | 1017.0 |
| 20260902022545 | 57 | 297 | 1.7 | 4.3 | 0.00 | 0.00 | 0.00 | 75 | 1016.9 |
| 20260902022045 | 57 | 302 | 1.7 | 3.5 | 0.00 | 0.00 | 0.00 | 75 | 1016.9 |
| 20260902021615 | 58 | 299 | 0.9 | 3.5 | 0.00 | 0.00 | 0.00 | 74 | 1016.9 |
| 20260902021045 | 58 | 299 | 0.9 | 3.5 | 0.00 | 0.00 | 0.00 | 74 | 1016.9 |
| 20260902020548 | 58 | 298 | 0.9 | 2.6 | 0.00 | 0.00 | 0.00 | 73 | 1016.8 |
| 20260902015546 | 58 | 0 | 0.0 | 3.5 | 0.00 | 0.00 | 0.00 | 72 | 1016.8 |
| 20260902015044 | 58 | 298 | 0.9 | 3.5 | 0.00 | 0.00 | 0.00 | 72 | 1016.8 |
| 20260902014551 | 59 | 294 | 0.9 | 3.5 | 0.00 | 0.00 | 0.00 | 71 | 1016.8 |
| 20260902014045 | 59 | 296 | 0.9 | 3.5 | 0.00 | 0.00 | 0.00 | 71 | 1016.7 |
| 20260902013544 | 59 | 295 | 0.9 | 3.5 | 0.00 | 0.00 | 0.00 | 71 | 1016.8 |
| 20260902013104 | 59 | 282 | 0.9 | 4.3 | 0.00 | 0.00 | 0.00 | 70 | 1016.7 |
| 20260902012544 | 59 | 279 | 0.9 | 4.3 | 0.00 | 0.00 | 0.00 | 69 | 1016.8 |
| 20260902012044 | 59 | 294 | 1.7 | 4.3 | 0.00 | 0.00 | 0.00 | 68 | 1016.8 |
| 20260902011559 | 59 | 319 | 1.7 | 4.3 | 0.00 | 0.00 | 0.00 | 68 | 1016.8 |
| 20260902011045 | 59 | 315 | 1.7 | 3.5 | 0.00 | 0.00 | 0.00 | 68 | 1016.8 |
| 20260902010543 | 59 | 0 | 1.7 | 5.2 | 0.00 | 0.00 | 0.00 | 67 | 1016.6 |
| 20260902010059 | 60 | 327 | 1.7 | 7.0 | 0.00 | 0.00 | 0.00 | 67 | 1016.6 |
| 20260902005544 | 60 | 305 | 0.9 | 7.0 | 0.00 | 0.00 | 0.00 | 67 | 1016.5 |
| 20260902005044 | 60 | 304 | 3.5 | 7.0 | 0.00 | 0.00 | 0.00 | 66 | 1016.6 |
| 20260902004558 | 60 | 338 | 3.5 | 7.0 | 0.00 | 0.00 | 0.00 | 65 | 1016.6 |
| 20260902004045 | 61 | 300 | 3.5 | 7.0 | 0.00 | 0.00 | 0.00 | 65 | 1016.6 |
| 20260902003543 | 61 | 306 | 0.9 | 6.1 | 0.00 | 0.00 | 0.00 | 66 | 1016.6 |
| 20260902003055 | 61 | 300 | 0.9 | 3.5 | 0.00 | 0.00 | 0.00 | 66 | 1016.5 |
| 20260902002542 | 61 | 314 | 1.7 | 3.5 | 0.00 | 0.00 | 0.00 | 66 | 1016.6 |
| 20260902002042 | 61 | 290 | 1.7 | 4.3 | 0.00 | 0.00 | 0.00 | 66 | 1016.6 |
| 20260902001558 | 61 | 308 | 0.9 | 6.1 | 0.00 | 0.00 | 0.00 | 65 | 1016.6 |
| 20260902001044 | 61 | 302 | 1.7 | 7.8 | 0.00 | 0.00 | 0.00 | 65 | 1016.5 |
| 20260902000543 | 61 | 298 | 3.5 | 7.8 | 0.00 | 0.00 | 0.00 | 64 | 1016.5 |
| 20260902000058 | 61 | 249 | 1.7 | 7.8 | 0.00 | 0.00 | 0.00 | 65 | 1016.5 |
| 20260901235543 | 62 | 305 | 3.5 | 7.8 | 0.00 | 0.00 | 0.00 | 63 | 1016.5 |
| 20260901235043 | 62 | 284 | 1.7 | 6.1 | 0.00 | 0.00 | 0.00 | 63 | 1016.4 |
| 20260901234558 | 62 | 300 | 1.7 | 7.0 | 0.00 | 0.00 | 0.00 | 63 | 1016.5 |
| 20260901234043 | 63 | 301 | 1.7 | 7.0 | 0.00 | 0.00 | 0.00 | 62 | 1016.6 |
| 20260901233543 | 63 | 301 | 2.6 | 7.0 | 0.00 | 0.00 | 0.00 | 62 | 1016.5 |
| 20260901233052 | 63 | 291 | 2.6 | 7.0 | 0.00 | 0.00 | 0.00 | 60 | 1016.6 |
| 20260901232543 | 64 | 300 | 1.7 | 4.3 | 0.00 | 0.00 | 0.00 | 60 | 1016.5 |
| 20260901232046 | 64 | 290 | 0.9 | 4.3 | 0.00 | 0.00 | 0.00 | 59 | 1016.5 |
| 20260901231559 | 64 | 296 | 1.7 | 7.0 | 0.00 | 0.00 | 0.00 | 60 | 1016.6 |
| 20260901231042 | 64 | 290 | 1.7 | 7.0 | 0.00 | 0.00 | 0.00 | 60 | 1016.6 |
| 20260901230544 | 64 | 295 | 2.6 | 6.1 | 0.00 | 0.00 | 0.00 | 58 | 1016.5 |
| 20260901230058 | 64 | 298 | 2.6 | 7.8 | 0.00 | 0.00 | 0.00 | 59 | 1016.5 |
| 20260901225547 | 65 | 325 | 1.7 | 7.8 | 0.00 | 0.00 | 0.00 | 58 | 1016.6 |
| 20260901225043 | 65 | 294 | 2.6 | 7.8 | 0.00 | 0.00 | 0.00 | 58 | 1016.6 |
| 20260901224559 | 65 | 284 | 1.7 | 4.3 | 0.00 | 0.00 | 0.00 | 58 | 1016.6 |
| 20260901224046 | 65 | 291 | 1.7 | 5.2 | 0.00 | 0.00 | 0.00 | 60 | 1016.6 |
| 20260901223543 | 65 | 325 | 1.7 | 5.2 | 0.00 | 0.00 | 0.00 | 59 | 1016.6 |